Location: Igri�s
(42.2144°N, 0.4320°W)
Time: 17:39:26
(UTC+00:00)

Cosmos 1862 - Pass Details

Date: 13 August 2020
Orbit: 537 x 557 km, 82.5° (Epoch: 17 September)

Event Time Altitude Azimuth Distance (km) Brightness Sun altitude
Rises 19:29:30 0° 181° (S) 2,723 6.6 -5.0°
Reaches altitude 10° 19:31:40 10° 178° (S) 1,835 5.7 -5.4°
Maximum altitude 19:35:40 69° 96° (E) 601 3.3 -6.1°
Drops below altitude 10° 19:39:44 10° 13° (NNE) 1,852 6.2 -6.8°
Sets 19:41:55 0° 11° (N) 2,752 7.1 -7.1°
